TEVEL2-7

Last updated on Fri Dec 19 2025 00:03:12 GMT+0000 (Coordinated Universal Time)

1 63238U 25052AE 25352.58888303 .00013720 00000+0 54906-3 0 9995 2 63238 97.4148 243.8300 0009296 65.8778 294.3431 15.25151935 42430
UTC large
Height (km)
Speed (km/s)
/
Latitude / Longitude
Inclination (degrees)
Orbital Period (minutes)
Azimuth
Elevation
Range (km)
Doppler Factor

Next 0 passes for location: London (51.5072 / 0.1276)

Sorry there are no passes over London.